Wind_Speed
27 25 24 23 22 21 19 18 17 16 14 13 12 11 10 9 8 8 8 8 9 10 12 13 14 15 16 17 18 18 19 20 21 23 24 25 26 26 27 28 28 29 29 30 32 33 33 31 30 28 26 23 21 17 13 7 2 5 10 11 9 7 6 5 4 4 4 4 4 4 3 2 2 3 5 7 8 9 10 11 11 12 14 15 17 18 19 19
30 29 27 26 25 24 23 21 20 19 17 16 14 13 12 11 10 10 10 9 9 10 11 12 13 13 14 15 16 17 17 18 19 21 22 24 25 25 26 26 27 27 28 29 30 32 33 32 31 30 29 26 24 21 16 10 5 1 6 10 10 8 8 7 6 5 6 6 5 5 4 3 2 2 3 5 6 6 6 6 7 8 9 10 12 13 13 14
33 32 30 29 28 27 26 24 23 22 20 19 17 16 15 14 12 11 11 11 10 10 11 12 12 13 13 14 15 15 16 16 17 19 20 22 23 24 25 25 26 26 27 27 28 30 32 33 32 31 30 28 25 23 19 15 10 6 3 5 9 9 9 9 8 8 7 7 7 7 6 5 4 5 6 7 7 8 7 6 7 7 7 7 8 9 9 9
36 35 33 32 31 30 29 27 26 25 23 22 20 19 17 16 15 14 13 13 12 11 12 12 12 13 13 13 14 15 15 15 15 16 18 20 21 23 24 24 24 25 25 26 26 28 29 31 31 31 30 28 26 25 21 19 17 11 8 5 6 9 10 10 10 10 10 9 9 9 8 7 7 8 8 8 7 8 7 7 7 5 5 5 5 6 6 5
39 38 37 36 34 33 32 30 29 28 26 25 24 22 20 19 18 16 15 15 14 13 13 13 13 13 13 13 13 14 14 14 14 15 16 17 19 21 22 23 23 24 24 24 25 26 27 29 30 30 30 28 27 26 23 22 21 16 12 8 5 7 10 11 11 12 12 12 11 10 9 8 8 8 8 5 4 6 6 6 5 2 2 2 2 2 3 2
40 40 40 39 38 36 35 34 32 31 29 28 27 25 24 22 20 19 18 17 16 15 14 14 14 14 14 13 13 13 14 13 13 13 14 15 17 19 21 21 22 22 22 23 23 24 25 27 28 29 30 28 28 27 25 24 23 20 17 12 8 7 8 10 11 12 12 13 13 12 10 8 8 9 8 4 3 5 5 4 3 1 1 2 2 2 2 2
40 40 41 41 40 40 38 37 36 34 32 31 30 28 27 25 23 22 21 20 19 17 16 15 16 16 15 14 14 13 13 13 13 13 13 13 15 17 18 20 21 21 21 22 22 23 23 25 26 28 28 28 29 28 27 26 25 23 21 17 13 9 7 8 9 11 12 13 14 13 12 8 6 8 6 3 3 4 3 3 2 1 2 3 4 4 4 4
40 40 40 41 42 42 41 40 39 38 36 34 33 31 30 28 26 25 24 23 21 20 19 17 17 17 17 16 15 14 13 14 13 13 13 13 13 14 16 18 19 20 20 20 21 21 22 23 24 25 27 28 28 27 27 28 27 25 23 20 18 14 11 9 9 10 12 14 14 13 12 9 6 5 4 2 2 3 3 2 1 2 3 5 6 6 6 6
41 41 40 41 41 42 42 42 42 41 39 38 36 34 33 32 30 28 27 26 24 23 22 20 18 18 19 19 17 15 14 14 14 13 13 13 12 13 14 16 17 18 19 20 20 20 21 21 22 24 25 27 26 26 28 28 28 26 24 21 20 19 17 15 13 12 12 13 13 12 11 9 7 5 3 2 2 3 3 1 3 4 5 7 8 8 8 8
44 43 42 42 41 41 42 43 43 43 42 41 39 38 36 35 33 31 30 29 27 25 24 23 21 20 20 21 20 17 16 15 15 14 13 13 12 12 13 14 15 17 18 19 19 19 20 20 21 21 23 24 24 25 27 28 28 28 26 23 21 21 21 20 19 17 15 14 13 12 10 8 5 3 3 2 2 2 0 1 4 5 6 8 8 8 8 8
47 46 45 44 43 42 42 42 43 43 43 43 42 41 40 38 37 35 33 32 30 28 27 26 25 23 22 23 23 20 18 16 16 16 14 14 13 12 12 12 13 15 16 17 18 18 18 19 19 19 20 21 22 24 25 26 27 27 27 25 22 22 22 22 21 20 18 16 14 12 10 7 5 3 1 2 3 4 4 4 4 5 6 8 8 8 8 8
51 50 48 47 46 45 44 43 43 43 44 44 44 43 42 41 40 38 36 35 33 31 29 29 28 27 25 25 25 23 21 19 17 17 16 15 14 13 12 12 12 13 14 16 17 17 17 18 18 18 18 19 20 21 23 24 25 25 26 26 24 22 22 22 21 22 21 18 16 13 11 8 6 4 4 5 6 7 7 6 6 6 7 9 9 9 9 9
55 54 53 51 50 48 47 46 44 44 44 44 45 44 44 43 43 42 40 38 37 34 32 31 31 30 28 27 27 26 24 22 20 19 17 16 15 15 14 13 12 12 13 14 15 17 17 17 17 18 17 17 18 19 21 22 22 23 24 25 26 24 23 23 22 22 22 21 19 17 13 10 9 9 9 9 8 9 9 7 6 7 7 9 10 11 10 10
59 59 57 56 54 52 50 49 48 46 45 45 45 45 45 44 44 44 43 41 40 38 35 34 33 33 31 30 29 27 27 26 23 21 19 18 17 16 15 14 13 12 13 13 14 15 16 16 16 17 16 16 16 17 19 20 20 21 22 23 25 24 24 24 23 21 20 20 19 17 15 13 12 11 11 12 11 12 11 8 6 7 8 8 10 10 10 10
64 63 62 60 59 57 55 53 51 50 49 47 46 46 46 45 45 46 45 44 43 41 39 37 36 36 34 33 32 29 30 29 25 23 22 20 19 18 17 16 14 13 13 12 12 13 14 15 15 15 15 16 15 15 16 17 18 18 20 21 22 23 23 23 23 22 20 19 17 16 15 14 12 12 12 12 12 12 11 9 7 7 9 9 9 10 10 10
68 66 65 64 63 62 60 58 55 53 52 51 50 49 47 46 45 46 46 45 44 43 42 40 39 38 37 37 34 30 31 30 28 27 25 23 21 20 19 17 16 15 13 13 12 12 13 13 14 14 14 14 14 14 14 14 15 16 17 19 19 20 21 22 22 22 21 20 19 17 16 14 14 13 12 11 11 10 10 9 8 8 8 9 10 10 10 10
72 70 69 68 67 66 64 62 60 58 56 54 53 52 50 48 46 46 47 47 46 45 44 43 42 42 40 40 36 32 32 33 32 31 28 26 24 22 20 19 18 17 15 14 13 12 12 12 13 13 13 13 13 13 13 12 12 13 14 16 17 17 19 20 20 20 20 20 20 18 17 16 16 15 14 12 10 9 10 11 10 10 10 11 11 11 11 10
75 74 73 71 70 69 68 66 64 62 60 58 56 56 54 51 48 48 47 48 48 46 46 45 44 44 42 42 39 36 36 36 35 34 30 29 27 25 23 21 20 19 17 16 15 13 13 13 12 12 13 12 12 12 12 11 10 11 11 13 15 15 16 17 17 17 18 18 18 18 17 16 16 16 16 14 12 10 10 10 10 11 12 11 11 11 11 10
78 77 76 75 74 72 70 69 68 66 64 62 60 59 57 54 52 50 48 49 50 49 47 46 46 45 45 44 42 40 39 38 38 37 34 32 30 27 26 24 22 21 20 18 17 15 14 14 13 12 12 12 12 11 11 11 9 9 9 10 11 12 13 14 14 14 15 15 15 16 16 15 14 14 15 15 14 12 10 9 10 10 10 10 10 10 10 10
79 79 78 78 77 75 74 72 70 69 68 66 64 62 60 58 56 53 51 52 51 50 48 47 48 47 46 46 44 43 42 40 40 39 37 34 32 30 29 27 25 24 22 20 20 18 16 16 15 13 12 12 12 11 11 10 10 8 8 8 8 9 11 11 11 12 13 12 12 12 12 13 13 13 12 12 12 12 10 10 9 9 10 10 10 10 9 8
79 79 79 78 78 78 76 75 73 72 71 69 67 65 63 61 59 56 55 55 53 51 49 49 50 48 47 46 45 45 45 44 43 42 40 38 35 33 32 31 29 27 24 22 22 21 19 18 17 16 14 13 12 12 11 10 10 9 7 6 6 7 8 8 9 9 11 11 11 10 8 9 10 10 10 10 9 9 9 9 8 7 8 8 8 10 9 8
80 79 79 78 78 78 78 77 75 74 74 72 70 69 66 64 62 59 58 58 55 53 51 51 52 50 48 47 47 47 47 47 46 44 43 41 38 36 36 34 32 29 26 25 24 23 21 20 19 18 17 15 13 12 12 11 10 9 8 7 6 4 5 5 6 7 8 8 9 10 8 7 7 6 8 10 9 8 7 7 7 7 8 8 8 9 9 9
80 80 80 79 79 78 78 77 77 77 75 73 72 71 69 67 65 62 60 60 58 56 55 55 54 51 50 49 48 48 48 49 48 46 46 43 41 39 39 37 35 31 29 28 27 25 24 22 21 20 19 18 16 14 13 13 11 10 9 8 8 6 4 3 4 4 5 6 6 7 8 6 6 5 5 7 8 8 8 7 7 7 8 9 9 9 9 10
81 81 80 80 79 79 78 78 78 78 77 75 73 73 72 71 68 65 63 63 62 60 59 58 56 53 53 52 50 48 49 50 49 49 48 45 44 42 41 40 37 34 32 32 30 28 26 24 24 22 21 20 19 17 16 15 13 12 11 10 9 9 7 5 3 3 3 4 5 5 5 5 6 6 5 6 6 7 7 7 7 7 8 9 10 10 10 11
82 81 81 80 80 80 79 79 79 79 77 75 75 74 74 73 72 69 66 65 64 64 62 61 58 56 55 54 51 49 51 52 51 50 49 47 46 45 44 43 40 37 36 35 33 31 28 27 26 24 23 22 21 20 19 18 16 14 13 12 11 10 10 9 7 5 3 3 3 4 4 3 4 5 5 6 6 6 6 6 7 8 9 9 10 12 11 11
83 83 82 81 80 81 80 80 80 80 78 76 76 75 75 75 74 71 69 66 67 67 64 63 62 60 59 57 53 53 54 53 52 51 50 49 47 47 46 44 43 41 39 37 36 33 30 30 29 27 24 23 23 23 22 21 18 17 16 14 13 12 11 11 11 8 7 6 5 5 6 5 4 5 5 5 6 6 6 6 6 8 9 9 10 11 12 11
85 84 83 82 81 81 81 81 81 80 78 77 78 76 75 75 74 73 71 68 69 69 66 65 65 63 63 60 57 56 55 54 53 52 51 50 49 48 47 46 46 44 42 40 38 36 35 33 31 28 26 25 25 25 25 24 21 20 19 17 16 15 13 13 13 12 10 9 8 7 7 8 7 6 6 6 6 6 6 6 6 8 9 10 11 11 12 12
87 86 85 84 82 82 83 82 81 81 78 78 79 78 75 75 75 74 73 70 70 71 68 66 67 67 67 63 59 58 58 56 54 52 53 53 50 49 48 48 48 46 45 42 40 40 38 35 33 31 28 28 27 27 27 27 25 23 22 20 19 17 16 15 14 14 13 12 11 9 8 9 10 10 10 9 9 8 7 7 7 8 9 10 11 12 13 14
88 88 87 86 84 83 85 84 82 81 79 79 80 78 76 76 75 74 73 71 71 72 70 68 69 70 69 64 61 61 61 59 56 55 55 55 52 50 49 49 49 48 45 44 43 43 40 37 36 33 30 30 30 29 29 29 28 26 24 24 22 20 19 18 17 16 15 15 13 10 9 9 10 12 12 12 13 11 11 10 9 10 11 11 12 13 15 16
86 88 88 89 87 85 86 86 83 82 81 80 80 79 77 76 75 73 72 72 73 73 72 71 71 71 69 65 62 63 64 62 60 58 58 57 54 52 51 50 49 47 45 45 45 44 42 40 38 35 34 34 34 32 31 31 29 27 27 28 25 23 23 21 20 19 18 18 16 13 12 10 10 12 13 14 15 14 14 14 13 12 12 13 13 14 16 18
79 84 87 89 90 87 88 88 84 84 83 81 80 79 77 76 75 73 72 74 75 73 73 72 72 72 69 65 63 66 68 66 64 62 60 59 56 53 52 50 48 47 45 45 45 45 44 43 40 39 39 38 37 35 33 33 31 29 30 31 28 26 26 25 23 22 21 21 19 16 15 14 13 13 13 15 16 16 16 16 16 15 14 14 14 14 18 20
71 76 81 86 90 91 91 90 86 86 85 82 81 79 77 76 74 72 74 76 75 73 73 73 73 72 70 66 65 69 70 67 66 64 62 61 59 55 53 50 49 48 46 46 47 47 48 46 44 43 42 41 40 37 36 35 32 31 33 33 31 29 29 29 27 25 25 24 23 21 18 17 16 15 15 16 17 18 19 19 19 19 18 16 14 14 17 21
66 67 72 79 87 92 94 91 88 88 86 84 82 79 77 74 72 73 76 76 75 74 75 74 74 75 72 69 69 71 71 67 67 66 64 64 62 59 56 53 52 50 48 49 50 51 51 48 45 43 43 44 43 40 39 38 35 34 35 34 34 32 31 31 31 30 28 27 27 25 22 21 20 18 18 18 18 19 21 22 24 25 24 20 18 17 17 21
64 63 66 71 80 89 94 92 91 90 88 85 83 80 77 73 73 76 77 76 76 77 76 76 76 76 74 72 72 73 72 69 69 68 65 65 64 61 58 56 54 52 52 52 52 53 52 48 45 44 45 47 46 43 41 41 38 36 36 36 36 36 34 33 33 32 32 31 31 29 27 25 24 22 21 20 20 21 21 23 24 27 30 27 23 21 21 22
62 61 64 67 73 82 90 92 93 93 90 87 84 80 75 74 76 79 79 78 79 79 78 78 77 77 76 75 74 74 73 70 71 70 66 65 65 62 59 58 56 56 56 54 53 53 51 49 47 45 48 50 47 45 44 44 41 38 37 38 39 39 38 35 34 34 34 34 34 33 32 30 27 26 26 23 23 24 24 24 24 26 31 32 29 27 26 25
62 61 63 66 69 76 83 89 93 94 92 89 85 79 76 77 80 80 80 81 82 82 80 78 78 78 77 76 75 75 74 72 73 72 68 65 66 64 61 61 60 59 58 56 55 55 54 53 50 46 51 52 48 48 49 46 43 40 39 41 42 41 39 38 37 37 37 36 36 37 36 33 31 30 31 27 25 28 28 27 27 27 29 32 33 32 30 29
61 61 63 66 67 69 76 84 90 94 94 91 85 80 79 81 83 82 83 84 84 83 80 78 79 79 77 76 76 75 75 75 75 73 69 66 67 66 63 63 62 61 59 58 58 58 57 57 52 49 54 54 49 53 53 47 44 42 41 44 44 42 40 41 41 39 39 39 39 39 38 36 34 33 34 32 30 32 33 32 31 30 29 31 33 34 34 32
62 61 63 64 64 65 70 79 86 91 94 91 86 83 82 83 85 85 86 86 85 83 81 80 80 79 77 77 77 76 75 77 77 74 71 68 68 67 65 64 63 61 61 62 62 61 59 59 55 52 56 56 52 56 54 46 44 43 44 46 46 43 43 43 42 42 42 42 41 42 41 39 38 35 35 35 34 36 37 38 37 34 32 31 32 34 35 34
63 62 62 61 61 63 68 75 81 87 92 91 87 86 86 86 87 88 88 88 86 84 83 81 80 79 78 77 78 78 76 77 78 75 72 69 68 69 68 66 64 63 65 66 65 63 61 61 60 56 58 58 54 55 53 46 44 46 46 48 47 45 46 45 45 45 45 44 43 44 44 42 40 38 36 36 36 37 40 42 42 40 38 35 33 35 37 36
63 63 61 59 60 63 66 71 76 82 88 89 89 90 90 89 90 90 90 89 87 84 83 81 81 81 78 75 77 78 77 78 80 77 73 71 71 71 71 69 67 67 69 68 67 66 63 64 65 62 60 59 54 53 53 49 47 48 49 49 48 48 49 49 48 46 46 46 45 46 47 44 41 40 39 38 39 40 42 42 42 43 44 41 38 39 40 39
64 64 60 56 59 62 63 66 71 77 84 88 90 93 93 92 92 92 91 90 87 86 85 84 83 80 78 77 77 79 79 79 80 77 73 72 72 72 73 73 71 71 72 71 70 67 65 66 70 68 62 57 54 53 55 54 52 51 52 50 49 51 52 52 50 47 47 48 47 49 49 45 42 41 41 42 43 44 44 43 42 43 45 46 43 41 42 42
64 64 59 55 58 61 60 62 68 74 80 86 91 94 96 95 94 93 92 91 89 88 87 85 83 82 82 80 78 79 79 79 79 77 74 73 73 73 75 76 75 75 75 74 71 69 68 69 73 73 65 56 54 56 58 59 57 54 53 52 51 52 53 53 52 49 49 50 50 52 51 46 43 44 44 45 47 47 46 45 45 44 45 46 47 44 43 43
65 64 59 56 58 60 58 60 66 72 78 85 91 96 97 97 96 95 93 92 90 89 87 85 84 84 83 81 78 78 78 78 77 77 75 74 73 74 77 78 78 78 77 76 75 73 72 72 74 75 69 61 60 61 60 61 60 56 53 53 53 53 52 53 54 53 53 53 52 54 53 48 46 46 46 48 50 50 48 47 46 46 44 45 48 48 46 44
66 64 60 57 57 57 55 57 63 70 77 85 91 96 98 98 97 96 94 92 90 89 88 87 87 87 85 83 81 79 79 79 78 77 77 75 74 75 77 78 78 79 78 78 77 74 74 75 75 77 75 67 63 62 59 59 60 58 56 55 54 55 53 54 58 58 56 54 54 56 55 51 49 48 48 52 54 53 51 48 47 47 45 46 49 49 48 47
67 65 61 57 55 55 53 55 61 68 75 83 90 95 98 98 97 97 95 93 92 91 90 90 90 89 87 84 83 81 80 80 80 79 78 76 74 74 77 78 78 78 78 78 78 76 76 79 78 78 78 71 64 63 62 60 59 58 58 59 58 57 56 57 61 61 58 56 56 58 57 53 51 51 52 54 56 57 55 50 47 47 47 48 50 49 48 49
68 66 61 56 54 53 53 54 59 65 72 80 87 93 96 97 97 98 97 94 93 93 92 91 90 89 87 85 84 83 82 82 82 81 79 77 76 76 76 77 76 76 77 77 77 78 79 81 81 80 80 74 67 65 66 63 61 59 59 62 62 60 59 61 63 63 60 58 57 58 58 55 53 54 55 56 57 59 58 53 50 49 49 51 53 52 49 49
69 66 60 56 55 55 54 55 58 63 71 78 85 90 94 95 96 97 97 96 95 94 93 91 89 88 87 87 86 85 84 84 85 84 82 80 80 79 77 77 76 75 76 75 76 79 81 82 82 81 80 76 71 69 68 66 64 61 60 62 63 63 62 62 63 63 63 61 59 59 60 58 55 56 58 59 60 60 59 57 54 53 52 53 53 53 51 50
70 66 62 58 57 56 55 55 57 62 68 74 81 87 92 94 95 96 96 97 97 94 92 91 90 89 88 89 88 88 88 88 88 87 85 82 81 80 76 76 77 76 74 74 76 79 82 82 81 81 80 78 74 73 71 68 66 64 63 63 64 64 64 64 64 64 64 63 63 63 63 60 57 58 60 61 62 62 59 58 55 55 57 57 54 53 53 53
71 68 62 59 58 57 56 56 58 61 66 71 77 83 89 92 95 96 97 97 96 94 93 93 92 90 91 91 92 92 93 92 91 91 88 83 81 79 76 75 75 73 72 75 78 81 82 82 80 80 80 79 77 75 73 70 69 68 66 66 67 67 66 66 66 66 66 66 66 67 66 63 60 61 62 63 64 63 61 58 56 56 59 61 58 55 54 54
72 69 63 59 59 59 57 56 58 61 67 71 75 80 85 90 93 95 96 96 95 94 94 94 92 91 93 94 95 95 96 96 95 94 89 85 82 80 79 79 77 72 73 78 80 81 82 81 80 80 80 79 78 76 74 73 72 71 69 69 71 70 69 68 66 67 69 69 70 70 69 66 64 63 64 65 64 62 60 59 58 58 61 63 62 59 56 56
73 70 64 60 60 60 58 57 58 61 66 71 76 81 85 88 91 94 96 96 95 95 95 95 94 94 95 96 96 97 97 97 95 92 87 84 83 82 82 83 79 75 77 81 82 81 80 79 79 79 78 78 75 74 74 74 74 74 73 74 74 73 72 70 68 70 72 72 74 74 71 68 67 67 67 66 63 60 59 59 60 62 64 64 63 61 59 59
73 70 66 61 61 62 60 59 60 62 66 71 76 81 85 88 90 93 95 94 94 94 95 96 96 97 97 97 97 97 96 93 90 88 85 84 85 84 84 84 82 80 81 83 84 82 79 78 78 78 77 75 72 73 75 77 78 78 77 77 77 77 76 74 73 73 75 76 78 77 74 71 70 71 70 67 63 60 59 59 60 63 66 64 63 63 61 61
Wind_Direction
236 235 235 235 236 237 237 237 238 239 240 245 252 256 262 270 281 293 304 314 326 333 340 346 353 359 2 5 10 16 22 26 30 31 31 31 30 31 30 30 30 30 31 32 35 38 40 40 41 41 40 41 40 38 34 23 336 246 233 222 208 207 216 195 174 171 143 125 121 123 128 147 191 212 215 220 218 225 237 239 239 242 245 247 247 247 247 247
238 238 237 236 235 236 238 239 239 240 240 241 246 252 257 262 268 279 287 297 308 319 327 334 341 348 354 358 2 8 16 22 26 29 30 30 29 29 30 29 28 29 29 30 32 35 38 39 39 39 39 40 39 39 39 38 45 165 225 226 214 201 211 201 174 165 138 127 127 124 125 130 156 186 194 203 197 199 219 231 231 234 239 241 241 240 238 237
241 241 240 239 237 236 236 238 240 241 242 242 242 246 252 257 261 268 276 284 293 304 312 319 328 336 344 350 354 359 7 14 21 25 28 29 28 28 29 29 28 27 28 28 30 32 36 38 38 39 39 39 40 40 41 45 54 74 131 205 211 196 202 204 180 161 146 145 142 134 135 142 167 181 189 198 192 189 190 193 198 202 208 215 221 225 223 221
243 243 243 242 241 239 237 236 237 239 242 244 243 244 247 253 257 260 267 274 282 292 300 307 314 323 331 339 345 350 357 5 12 19 23 26 28 27 27 28 27 26 26 26 28 29 33 37 38 38 39 38 40 43 42 47 55 65 87 123 183 193 197 200 184 163 156 156 148 141 140 147 167 177 181 185 186 188 183 181 183 182 184 185 195 204 203 204
243 244 244 244 244 244 242 239 237 237 238 241 244 246 245 248 254 257 261 267 274 281 290 297 302 310 318 326 334 340 347 354 2 10 17 22 25 26 25 26 27 26 25 24 26 28 30 35 36 37 40 37 38 43 44 47 55 61 72 92 138 182 197 200 187 168 159 156 148 144 143 147 162 168 166 164 174 182 183 183 177 169 178 179 190 208 204 211
245 244 244 245 245 245 245 244 242 239 237 237 241 244 246 247 250 255 258 262 267 273 280 288 293 298 305 312 320 329 336 342 350 358 6 15 20 24 24 23 25 25 24 23 23 26 27 31 35 35 39 38 37 42 44 48 55 59 67 78 100 144 184 193 185 171 165 158 151 147 139 146 167 171 162 142 140 161 169 181 172 151 326 312 293 278 273 284
248 247 245 245 245 245 246 246 246 245 242 239 238 241 244 245 248 252 255 258 263 267 271 278 285 290 294 300 307 315 323 330 339 346 353 4 13 19 22 21 23 24 24 22 21 23 25 28 32 33 37 38 37 39 42 48 54 57 63 71 81 98 135 165 174 173 170 163 158 148 134 135 166 177 170 151 144 152 162 162 144 344 328 329 314 304 305 308
249 249 248 247 246 245 245 246 247 247 246 244 241 240 241 243 245 248 252 255 258 262 266 269 276 282 287 290 295 302 311 317 326 334 341 350 2 10 17 18 19 22 23 22 19 20 22 24 29 30 34 37 36 36 40 47 53 57 61 68 75 84 95 117 142 159 167 165 159 147 132 127 135 151 171 182 153 155 181 169 47 1 347 339 328 321 323 321
249 249 249 249 248 247 246 245 246 247 248 247 246 244 243 242 242 244 248 251 254 258 262 265 268 274 279 283 285 291 299 305 312 321 329 336 348 358 7 14 15 18 20 21 19 18 19 21 26 27 30 36 36 35 39 44 50 55 59 64 71 78 85 94 105 122 140 148 145 136 129 127 125 125 137 154 130 142 195 253 6 4 350 340 331 329 327 325
249 249 250 250 249 249 248 247 246 246 247 248 248 247 246 245 244 243 245 247 250 253 257 261 263 266 272 277 279 283 288 294 302 308 315 323 333 345 355 4 10 14 17 19 18 17 17 17 23 24 26 32 35 36 38 42 47 51 55 59 64 69 74 81 87 94 105 116 123 126 129 133 134 130 121 122 114 95 264 330 17 12 3 355 347 345 340 332
249 249 249 250 250 249 249 248 247 247 247 247 248 248 248 247 247 245 245 245 247 248 252 256 259 262 265 271 274 277 279 284 291 296 303 311 319 329 340 352 0 8 13 15 16 16 16 15 19 22 23 27 31 38 40 40 45 48 52 57 60 65 69 73 79 83 86 94 103 113 124 134 139 155 130 91 86 61 46 52 43 23 22 21 16 13 7 2
250 250 250 250 249 249 249 249 248 248 247 247 247 248 249 248 248 248 247 246 246 246 248 252 256 258 260 265 269 272 273 277 281 285 292 299 307 315 324 336 347 357 5 10 12 13 14 13 14 17 21 23 25 35 41 41 43 47 51 55 58 63 69 73 80 83 84 86 91 99 116 134 142 139 109 85 80 67 60 59 42 31 35 35 34 32 24 19
249 250 250 250 250 249 249 249 248 248 247 247 246 247 248 249 248 248 248 248 247 246 246 249 253 255 257 260 263 267 270 272 273 276 283 290 296 303 310 319 331 343 353 2 7 9 11 11 10 11 15 19 21 29 38 41 43 47 51 54 57 62 69 73 78 85 86 87 88 92 100 113 119 110 92 82 79 72 68 63 45 41 41 36 40 39 30 27
249 249 250 250 250 250 249 249 248 248 248 247 246 246 247 248 249 248 247 247 248 247 246 247 250 253 254 256 258 263 266 267 268 272 277 281 286 292 298 306 315 327 338 350 360 3 6 8 7 6 6 12 18 24 33 38 41 45 50 54 57 62 68 70 74 82 87 89 88 86 87 91 97 92 81 79 80 75 69 68 61 52 46 40 43 44 37 34
248 249 249 250 250 250 250 249 248 248 248 247 247 246 245 246 248 248 248 247 247 247 247 246 248 251 252 254 254 257 262 265 267 269 271 274 277 282 287 294 302 312 322 334 347 354 359 3 4 2 360 4 12 18 27 34 37 41 47 53 56 60 65 68 73 80 84 87 86 83 83 84 87 88 85 82 78 73 68 64 60 52 48 44 45 43 34 33
248 248 248 249 249 250 249 249 249 248 247 247 247 246 245 245 246 247 248 248 247 247 247 246 247 249 250 252 252 254 260 264 265 264 265 267 270 273 278 284 291 299 308 317 329 341 347 355 359 358 356 359 3 8 18 28 32 37 43 49 53 58 63 67 73 79 81 82 82 81 81 80 80 83 86 82 72 68 62 53 48 47 47 45 45 38 27 31
250 249 248 248 248 249 249 249 249 248 247 247 246 247 246 245 244 245 247 248 248 247 246 246 246 247 248 250 251 252 255 258 260 260 261 263 265 267 271 277 282 288 295 302 312 324 332 341 349 353 352 353 355 358 7 18 24 31 39 46 49 53 59 64 70 77 81 82 81 80 80 78 77 77 79 77 72 70 61 51 49 52 49 43 41 32 26 33
250 250 249 248 248 248 248 248 248 248 248 247 246 246 246 245 244 244 245 247 248 248 247 246 245 246 247 249 250 250 251 253 256 259 260 261 263 265 267 270 275 280 285 292 298 307 317 325 334 343 346 346 348 350 355 3 11 20 31 42 46 48 54 59 65 72 78 81 82 81 82 80 77 76 76 76 77 77 62 52 57 58 51 43 38 31 31 37
249 250 250 249 248 248 247 247 247 247 247 247 246 245 245 245 244 244 244 245 246 247 247 247 245 245 246 247 248 249 249 251 255 257 258 259 261 263 265 266 269 272 277 283 289 295 303 310 317 328 335 338 340 341 345 348 356 6 17 32 42 44 48 52 57 64 69 74 79 81 81 80 77 73 74 74 77 79 67 57 64 68 59 46 38 34 33 35
248 249 249 249 249 248 247 246 246 246 246 246 246 245 245 244 244 243 244 244 245 245 247 247 246 245 245 246 247 248 249 250 252 255 256 258 259 261 262 263 264 266 270 276 281 286 291 299 305 311 319 326 331 331 334 337 341 349 359 14 29 39 43 46 49 54 57 60 67 74 79 79 74 71 70 69 71 74 71 65 66 70 64 49 39 35 29 21
248 248 248 248 248 248 247 246 245 245 245 245 245 245 245 244 244 243 243 244 244 245 246 247 247 246 245 245 246 247 248 249 250 252 254 255 256 258 259 260 261 262 265 269 274 279 283 289 295 300 305 310 317 322 323 325 329 333 336 348 8 27 36 37 39 46 50 50 51 56 69 73 65 66 66 60 55 55 58 58 55 56 52 43 33 25 17 8
248 248 247 247 247 247 247 247 246 244 243 243 243 244 244 244 243 243 243 244 244 245 245 246 247 247 246 245 244 245 245 246 247 248 250 251 252 254 256 257 259 260 263 265 268 271 276 280 286 291 295 298 303 310 313 314 317 320 321 321 326 351 23 30 29 36 41 42 42 45 57 59 48 57 66 57 46 34 32 38 38 37 37 35 25 11 6 4
248 248 247 246 246 246 246 246 246 245 243 242 242 243 243 243 243 242 243 244 244 244 245 245 246 246 246 245 244 244 245 246 247 247 248 250 251 252 254 256 257 259 261 262 263 266 270 275 279 283 287 290 293 298 303 304 306 308 310 308 304 306 322 356 11 21 29 30 30 40 53 48 32 38 51 50 44 32 22 24 28 30 30 29 24 11 3 4
248 247 247 246 246 245 245 245 245 245 244 242 241 241 241 242 242 241 241 243 244 244 244 245 245 245 246 245 244 244 245 245 246 247 248 249 250 251 253 254 255 257 258 259 261 263 265 269 273 276 281 284 287 290 293 296 298 300 301 301 298 293 293 293 304 336 1 11 9 18 38 36 25 25 25 27 30 25 14 11 14 13 10 12 15 13 8 4
248 247 246 246 245 245 244 244 244 244 244 243 242 241 240 240 241 240 240 240 243 243 243 244 245 245 246 246 246 245 244 244 245 246 246 247 248 249 250 252 254 254 255 257 259 260 262 266 268 271 274 278 281 283 286 288 291 295 293 294 294 290 288 284 278 276 284 313 334 337 348 5 13 11 11 13 11 10 6 3 0 358 356 358 2 6 6 3
248 247 246 245 245 245 244 243 243 243 243 243 242 241 240 239 239 240 240 239 241 242 243 244 245 246 246 246 245 245 245 244 245 246 246 246 246 247 249 251 252 252 253 255 256 259 260 261 263 266 269 273 276 277 279 281 284 288 287 287 290 289 289 285 281 276 270 270 279 302 315 324 335 343 345 349 352 353 356 356 350 347 349 347 348 353 354 353
249 248 247 246 245 244 244 243 242 242 242 242 242 241 240 240 239 239 239 239 240 241 241 243 244 244 245 245 244 245 246 245 246 246 247 246 245 246 247 248 250 251 252 253 255 257 257 258 260 263 266 268 270 272 273 275 277 280 282 285 286 287 287 285 284 283 280 275 272 277 293 303 309 311 315 318 322 329 335 343 338 333 339 337 335 338 339 338
248 247 247 246 244 244 244 242 242 242 240 240 241 240 240 240 239 239 238 238 239 241 241 241 243 243 244 244 244 246 247 246 246 246 247 247 246 246 247 247 248 249 250 251 253 254 254 256 259 260 263 266 267 267 268 270 271 273 278 281 281 282 284 282 281 279 277 275 272 270 275 288 297 298 300 300 301 307 309 316 319 319 325 328 326 326 328 329
247 246 247 246 245 244 244 243 241 241 240 239 240 240 239 239 239 239 238 238 239 240 240 239 241 242 243 243 244 245 247 247 246 246 246 247 247 246 247 247 247 248 250 251 252 253 254 256 257 258 261 263 263 263 264 265 267 269 273 275 276 278 279 279 279 277 275 273 270 271 271 277 291 295 296 299 299 301 301 303 307 309 313 316 318 318 319 322
248 246 245 246 245 244 244 243 241 240 240 238 238 238 238 238 238 239 239 239 238 238 239 239 240 241 242 243 244 245 246 246 246 245 245 246 246 246 246 247 248 250 250 251 252 253 254 255 256 258 258 259 260 261 261 262 263 265 268 270 272 275 277 277 278 279 278 276 273 273 272 271 280 287 293 298 298 300 300 300 299 298 301 305 310 314 314 315
249 246 244 244 244 243 243 243 241 240 239 238 237 237 237 237 237 237 237 238 238 238 238 239 240 241 242 241 242 244 245 245 245 246 246 247 247 246 247 248 249 250 251 252 253 254 254 254 254 255 255 256 257 258 260 261 262 263 263 265 267 270 274 275 275 276 278 278 276 273 272 271 273 277 286 292 293 296 296 295 295 292 290 294 301 310 312 311
252 248 245 244 243 242 242 242 241 240 239 238 237 237 236 235 236 236 236 237 238 237 237 238 239 240 240 239 239 242 244 244 245 246 247 248 248 248 248 248 248 249 248 249 250 251 251 250 250 251 253 255 256 257 259 260 260 260 260 262 264 266 268 272 274 274 275 276 277 274 273 273 273 274 280 285 289 294 295 295 296 295 293 294 298 304 307 307
255 251 247 244 243 242 241 241 240 240 239 237 236 236 235 234 235 235 236 236 237 237 236 237 237 238 238 237 237 240 242 242 244 245 246 247 248 247 247 247 247 247 246 246 247 248 249 250 250 251 253 255 256 256 257 258 257 257 259 261 262 263 263 266 269 271 272 274 274 274 274 273 274 274 276 280 284 289 294 298 301 300 299 298 300 302 303 304
258 255 251 246 243 241 240 239 239 239 239 237 236 235 234 234 234 235 235 235 235 235 235 235 236 236 237 236 236 239 240 241 242 243 243 245 247 247 247 248 248 248 247 247 248 249 251 253 253 252 253 254 255 255 255 256 256 256 259 261 261 261 261 261 263 267 269 271 272 273 274 273 274 275 276 278 281 284 289 294 299 301 300 300 301 301 302 302
260 258 255 250 244 242 240 238 238 238 238 237 236 234 233 233 234 234 235 234 235 234 234 234 234 235 235 235 236 238 239 239 241 243 242 244 247 247 247 248 248 247 247 247 249 250 252 252 251 251 252 253 255 255 255 255 255 255 258 260 260 260 260 261 261 263 265 267 270 271 271 271 273 275 276 276 280 284 286 287 291 293 295 298 300 301 301 302
263 261 258 254 247 243 240 237 236 237 237 236 235 233 232 232 233 233 234 234 234 234 233 233 234 234 235 235 235 236 237 238 240 242 242 242 245 246 246 246 246 246 247 248 248 249 250 250 249 249 251 252 253 254 253 252 253 253 255 258 259 259 261 262 262 261 263 264 266 267 268 270 272 273 275 275 278 280 281 282 284 284 288 294 297 299 301 303
264 262 260 257 251 245 241 238 235 235 235 235 234 233 231 231 232 233 233 234 234 234 234 233 234 233 234 235 235 235 236 237 238 240 240 240 243 245 245 246 247 247 248 248 248 248 249 249 248 246 249 250 250 251 252 252 253 254 254 256 258 260 261 262 262 262 263 263 263 264 266 268 268 270 273 276 278 279 280 279 278 279 283 288 293 297 299 302
266 264 262 259 254 248 243 239 235 234 234 233 232 232 231 231 232 232 232 233 233 234 233 233 233 233 233 234 235 235 235 237 238 238 238 239 241 244 244 245 247 247 248 248 247 248 249 250 249 246 248 250 249 251 255 256 256 256 255 256 258 260 261 261 263 263 262 262 263 265 265 265 267 268 271 274 276 279 282 281 280 280 281 283 287 292 295 298
267 265 263 261 257 251 244 239 235 233 232 231 230 230 230 230 230 231 231 232 232 233 233 233 234 234 233 233 234 235 234 236 237 236 236 237 238 241 243 243 244 245 246 247 248 248 249 250 250 246 247 250 250 253 258 258 257 256 255 256 258 260 261 261 261 262 263 264 264 265 265 265 266 267 268 271 273 276 278 279 282 284 284 284 286 288 290 293
267 266 264 262 259 253 247 240 236 232 231 229 228 228 228 229 229 230 231 231 232 232 233 233 234 234 233 233 234 236 235 236 237 236 234 235 235 237 240 241 241 243 244 246 247 247 248 250 251 247 247 249 251 254 258 257 255 255 255 255 257 259 260 260 260 261 264 265 265 266 266 266 266 267 268 269 270 271 273 275 279 283 285 285 285 287 289 291
268 267 265 263 260 255 248 242 236 232 230 227 226 226 227 227 228 229 230 231 231 231 231 231 232 233 233 232 232 235 235 236 237 237 235 234 235 236 238 240 240 241 243 244 245 247 247 248 251 250 247 249 252 254 255 255 253 253 253 253 254 256 257 259 260 262 265 266 266 266 266 266 268 269 269 269 268 269 270 271 274 276 280 283 283 284 286 288
268 267 265 264 261 256 249 242 236 231 228 225 224 224 225 226 227 228 229 230 230 230 231 231 231 232 232 232 231 233 235 236 237 238 236 235 235 235 237 238 239 239 242 243 244 245 246 246 250 251 249 247 248 250 252 254 253 252 253 255 255 255 257 259 260 261 262 264 266 266 266 267 268 269 269 269 269 268 268 269 271 271 275 280 282 281 281 285
268 267 265 264 262 258 251 244 237 230 226 224 222 223 224 225 226 227 228 229 229 230 231 232 232 232 232 233 232 233 235 236 237 238 237 235 234 235 236 237 238 239 240 242 243 244 245 247 249 252 251 246 245 246 249 253 256 256 255 257 257 258 258 259 260 259 259 261 264 266 267 267 268 268 270 271 270 269 268 268 270 272 274 279 281 282 282 284
268 267 265 264 262 260 254 246 238 231 226 223 222 222 222 223 224 226 227 228 229 229 230 230 231 232 232 232 232 232 233 235 235 236 237 236 234 235 237 237 238 240 240 242 244 244 246 248 249 251 252 249 247 249 250 252 257 260 260 258 258 259 259 260 260 259 258 259 261 264 266 267 268 269 270 271 271 270 269 269 270 272 273 275 277 280 282 283
267 266 265 264 263 262 257 249 240 232 227 224 222 221 221 222 223 225 226 227 228 228 229 229 230 230 231 231 232 232 233 234 235 234 235 236 234 234 236 238 238 239 241 242 244 244 245 246 248 250 252 251 249 250 251 250 251 255 258 259 258 257 258 259 259 260 260 260 260 262 265 266 268 269 269 270 271 271 270 270 271 273 274 275 275 275 278 281
266 266 265 264 264 262 257 250 241 233 227 224 222 222 221 221 222 224 224 225 226 227 228 229 230 231 231 231 232 232 232 233 234 234 233 234 234 232 234 236 237 238 240 241 243 244 244 246 247 249 251 252 250 250 251 251 250 250 253 256 257 258 258 258 260 262 262 262 262 264 265 265 265 267 269 269 270 271 272 272 271 271 273 276 277 277 278 279
265 265 265 263 261 259 255 249 240 232 227 224 222 221 221 221 222 224 224 224 225 226 227 228 230 231 231 232 232 233 233 233 234 234 233 233 234 233 233 235 237 238 240 241 243 244 244 245 247 248 250 252 252 251 251 252 252 251 251 254 257 259 259 260 262 264 265 265 265 265 264 264 263 265 267 268 268 269 271 273 274 274 274 274 276 279 281 281
263 263 262 261 259 258 255 249 240 232 227 224 222 221 220 219 220 222 223 224 225 225 226 228 228 229 230 231 231 232 233 233 234 235 234 233 235 236 236 237 239 240 241 242 243 244 245 245 246 248 250 251 251 251 252 252 252 252 252 253 255 258 260 261 262 263 265 266 265 265 264 264 264 265 266 266 267 268 269 271 274 277 278 276 275 277 279 281
262 261 260 259 258 256 254 249 241 232 225 222 221 221 220 219 220 221 222 223 224 224 225 226 227 228 229 230 230 230 231 232 233 234 234 233 234 236 237 237 239 240 241 242 242 243 244 245 246 247 249 250 251 251 252 252 252 252 253 253 255 256 257 259 261 263 263 264 264 264 265 265 264 265 266 266 267 268 270 272 274 275 277 278 277 276 277 279
260 259 258 257 256 254 252 249 242 233 225 220 218 218 218 218 220 221 222 223 223 223 224 225 226 227 229 229 230 230 231 231 232 233 233 233 233 234 236 237 236 237 239 242 242 243 245 246 248 248 249 250 251 252 252 252 252 253 253 253 254 255 256 257 260 262 263 263 263 263 263 264 264 264 265 265 267 269 272 274 274 274 274 275 277 278 279 280
257 257 256 254 253 251 249 246 240 232 226 221 217 216 216 216 217 219 221 222 223 223 223 224 224 225 227 229 229 230 231 232 233 234 235 235 236 235 236 238 237 235 237 241 243 244 245 247 249 250 251 251 253 254 254 253 252 252 252 252 253 254 255 256 257 258 260 262 263 263 263 264 264 264 264 265 267 270 273 274 275 275 274 275 277 279 280 280
255 255 253 251 250 249 246 243 238 230 224 221 218 216 215 215 216 218 219 221 222 223 224 224 224 225 226 228 229 231 232 234 235 237 237 237 238 238 238 239 239 237 238 241 244 245 246 249 250 252 252 254 254 254 253 252 250 250 250 252 253 253 254 255 256 257 259 260 261 263 264 265 265 265 266 268 271 273 274 274 274 274 275 276 278 279 279 280
Height
11015 11016 11017 11018 11019 11019 11020 11021 11021 11022 11022 11023 11023 11024 11024 11025 11025 11025 11025 11025 11024 11024 11024 11024 11024 11024 11023 11023 11022 11022 11021 11021 11020 11019 11017 11016 11014 11013 11011 11010 11008 11006 11004 11002 11000 10998 10996 10994 10992 10990 10988 10986 10984 10982 10980 10978 10978 10978 10979 10979 10979 10980 10981 10981 10982 10982 10983 10983 10984 10985 10986 10987 10988 10988 10989 10990 10991 10992 10993 10994 10994 10994 10995 10996 10996 10997 10997 10998
11013 11014 11015 11016 11017 11018 11019 11019 11020 11020 11021 11022 11022 11023 11023 11024 11024 11025 11024 11024 11024 11024 11024 11024 11024 11024 11023 11023 11023 11022 11022 11021 11021 11020 11019 11017 11016 11015 11013 11011 11010 11008 11006 11004 11002 11000 10998 10996 10994 10992 10990 10987 10985 10983 10981 10980 10978 10978 10978 10978 10979 10980 10981 10981 10982 10983 10983 10984 10985 10986 10986 10987 10988 10989 10990 10990 10991 10992 10993 10993 10994 10994 10994 10995 10995 10996 10996 10997
11011 11012 11013 11014 11014 11016 11017 11017 11018 11019 11019 11020 11021 11021 11022 11023 11023 11024 11024 11024 11024 11024 11024 11024 11024 11024 11024 11023 11023 11022 11022 11022 11021 11021 11020 11019 11017 11016 11014 11013 11011 11010 11008 11006 11004 11002 11000 10997 10996 10994 10992 10990 10988 10986 10985 10982 10979 10978 10978 10978 10979 10980 10981 10981 10982 10983 10984 10985 10986 10986 10987 10988 10989 10990 10990 10991 10992 10992 10993 10993 10994 10994 10994 10995 10995 10995 10996 10996
11008 11009 11010 11011 11012 11013 11014 11015 11016 11017 11018 11018 11019 11020 11020 11021 11022 11022 11023 11023 11024 11024 11023 11023 11023 11023 11023 11023 11023 11022 11022 11022 11022 11022 11021 11020 11019 11017 11016 11014 11013 11011 11010 11008 11006 11004 11002 11000 10998 10997 10995 10993 10992 10989 10987 10984 10981 10980 10979 10978 10980 10981 10981 10981 10982 10983 10984 10985 10986 10986 10987 10989 10990 10991 10991 10992 10993 10993 10993 10993 10994 10994 10994 10995 10995 10995 10995 10996
11004 11006 11007 11008 11009 11010 11011 11013 11014 11015 11016 11016 11017 11018 11019 11019 11020 11021 11021 11022 11023 11023 11023 11023 11023 11023 11023 11023 11023 11022 11022 11022 11022 11022 11021 11021 11020 11018 11017 11015 11014 11013 11011 11010 11008 11006 11005 11002 11001 11000 10997 10996 10994 10991 10989 10986 10983 10981 10980 10979 10980 10980 10981 10982 10983 10984 10985 10986 10986 10986 10987 10989 10990 10991 10991 10992 10992 10992 10993 10993 10994 10994 10995 10995 10995 10995 10995 10995
11000 11002 11003 11005 11006 11007 11008 11010 11011 11012 11013 11014 11015 11016 11017 11018 11018 11019 11020 11021 11021 11022 11022 11022 11022 11022 11022 11022 11022 11022 11022 11022 11022 11022 11022 11021 11020 11019 11018 11016 11015 11014 11013 11011 11010 11008 11007 11004 11003 11002 10999 10998 10996 10993 10991 10988 10985 10983 10981 10980 10980 10981 10981 10982 10983 10984 10986 10986 10986 10987 10988 10989 10990 10991 10991 10991 10991 10991 10992 10993 10993 10994 10994 10995 10995 10995 10995 10995
10997 10998 10999 11001 11002 11004 11005 11006 11008 11009 11010 11012 11013 11013 11014 11015 11016 11017 11018 11019 11020 11021 11022 11022 11021 11021 11021 11022 11022 11022 11022 11022 11022 11022 11022 11021 11021 11020 11019 11017 11016 11015 11014 11013 11011 11009 11008 11006 11004 11003 11001 10999 10997 10995 10994 10990 10987 10985 10983 10982 10981 10981 10981 10982 10983 10984 10985 10986 10986 10987 10988 10989 10990 10991 10991 10992 10991 10991 10992 10992 10993 10993 10994 10994 10995 10995 10995 10995
10993 10994 10996 10997 10999 11000 11002 11003 11004 11005 11007 11009 11010 11011 11012 11013 11014 11015 11016 11017 11018 11019 11020 11021 11021 11020 11020 11021 11021 11021 11021 11021 11021 11021 11021 11021 11021 11020 11019 11018 11017 11015 11015 11013 11012 11011 11009 11007 11006 11004 11003 11000 10998 10998 10995 10992 10989 10987 10986 10985 10983 10983 10982 10982 10983 10984 10985 10985 10986 10987 10988 10989 10990 10991 10991 10991 10991 10992 10992 10992 10992 10993 10993 10994 10994 10994 10994 10994
10989 10990 10991 10993 10995 10996 10998 10999 11001 11002 11003 11005 11007 11008 11009 11010 11012 11013 11014 11015 11016 11017 11018 11019 11020 11020 11019 11019 11019 11020 11021 11020 11020 11021 11021 11021 11021 11021 11020 11019 11017 11016 11015 11014 11013 11012 11010 11009 11007 11005 11004 11001 11000 10999 10996 10994 10991 10989 10988 10988 10986 10985 10984 10983 10983 10983 10984 10985 10986 10987 10988 10989 10990 10991 10992 10992 10992 10992 10992 10991 10991 10992 10993 10993 10994 10993 10993 10993
10985 10986 10987 10989 10990 10992 10994 10995 10997 10998 11000 11001 11003 11004 11006 11007 11009 11010 11011 11012 11013 11015 11016 11017 11018 11019 11018 11017 11018 11019 11020 11020 11020 11020 11020 11020 11020 11020 11020 11019 11018 11016 11015 11015 11014 11013 11011 11010 11008 11007 11005 11004 11002 11000 10997 10995 10993 10991 10990 10989 10988 10987 10985 10984 10983 10983 10984 10985 10986 10987 10988 10989 10990 10991 10992 10993 10992 10992 10992 10991 10992 10992 10993 10993 10993 10993 10993 10993
10980 10981 10983 10984 10986 10988 10990 10991 10993 10995 10996 10998 10999 11000 11002 11004 11005 11007 11008 11009 11011 11012 11013 11014 11015 11017 11017 11016 11016 11017 11018 11018 11019 11018 11019 11019 11019 11020 11019 11019 11018 11017 11016 11015 11014 11013 11012 11011 11009 11008 11007 11006 11004 11001 10999 10998 10996 10994 10993 10991 10990 10988 10987 10986 10985 10984 10985 10986 10987 10988 10989 10990 10990 10991 10992 10992 10991 10992 10992 10992 10993 10993 10993 10993 10992 10992 10992 10992
10975 10977 10978 10980 10981 10983 10985 10987 10989 10991 10992 10994 10995 10996 10998 11000 11001 11003 11005 11006 11007 11009 11011 11012 11013 11014 11015 11015 11014 11015 11016 11017 11017 11017 11018 11018 11018 11019 11019 11019 11018 11017 11016 11015 11014 11013 11013 11012 11011 11009 11008 11007 11005 11003 11001 11000 10999 10997 10996 10994 10992 10991 10989 10988 10987 10986 10986 10987 10988 10989 10990 10991 10991 10992 10991 10991 10991 10992 10993 10993 10993 10993 10993 10992 10992 10992 10992 10992
10970 10972 10973 10975 10977 10978 10980 10982 10984 10986 10988 10990 10991 10992 10994 10995 10997 10999 11001 11002 11004 11006 11008 11009 11010 11011 11013 11013 11013 11013 11014 11015 11016 11016 11016 11017 11017 11018 11018 11018 11017 11017 11016 11015 11014 11013 11013 11012 11011 11010 11009 11009 11007 11005 11003 11002 11001 11000 10999 10996 10995 10993 10991 10991 10990 10989 10989 10989 10990 10990 10991 10992 10992 10992 10992 10991 10992 10992 10993 10993 10993 10993 10993 10992 10992 10992 10992 10993
10964 10966 10968 10970 10972 10973 10975 10978 10979 10981 10983 10985 10987 10988 10990 10991 10993 10994 10996 10998 11000 11002 11005 11007 11007 11008 11009 11010 11011 11012 11012 11012 11014 11014 11015 11015 11016 11016 11016 11017 11017 11016 11016 11015 11015 11014 11013 11012 11011 11010 11010 11009 11008 11006 11004 11003 11003 11002 11000 10999 10997 10996 10994 10993 10992 10991 10991 10991 10991 10992 10992 10992 10993 10993 10992 10992 10992 10993 10993 10994 10994 10993 10993 10993 10993 10992 10993 10994
10958 10960 10962 10964 10966 10968 10970 10972 10974 10977 10978 10980 10982 10983 10985 10987 10988 10990 10992 10994 10996 10998 11001 11003 11004 11005 11006 11007 11008 11010 11009 11010 11012 11013 11013 11013 11014 11014 11015 11015 11015 11016 11015 11015 11015 11014 11013 11012 11012 11011 11010 11009 11008 11007 11006 11004 11004 11003 11001 11000 11000 10999 10997 10996 10995 10994 10993 10993 10993 10993 10993 10993 10993 10993 10993 10993 10993 10993 10993 10994 10994 10993 10993 10994 10993 10993 10994 10994
10951 10954 10956 10958 10960 10962 10964 10967 10969 10971 10973 10975 10977 10978 10980 10983 10984 10986 10987 10989 10992 10994 10996 10999 11001 11001 11002 11003 11005 11008 11008 11008 11009 11010 11011 11011 11012 11013 11013 11014 11014 11014 11014 11014 11014 11014 11013 11013 11012 11012 11011 11010 11008 11008 11007 11005 11004 11004 11002 11001 11001 11001 10999 10998 10997 10996 10996 10995 10995 10994 10994 10994 10994 10994 10994 10994 10994 10994 10994 10994 10994 10994 10994 10994 10994 10994 10995 10995
10944 10946 10949 10951 10953 10955 10958 10961 10963 10965 10968 10970 10971 10973 10975 10978 10980 10982 10983 10985 10987 10990 10992 10995 10996 10997 10999 10999 11002 11006 11005 11005 11005 11006 11008 11009 11009 11010 11011 11012 11012 11013 11013 11013 11013 11013 11013 11013 11012 11012 11011 11010 11009 11008 11007 11006 11006 11005 11004 11002 11002 11002 11001 11000 10999 10998 10998 10997 10996 10996 10995 10995 10995 10995 10994 10994 10994 10994 10995 10994 10995 10995 10995 10995 10994 10994 10995 10995
10936 10938 10941 10943 10946 10949 10951 10954 10957 10959 10962 10964 10965 10967 10969 10973 10976 10977 10979 10981 10982 10984 10987 10990 10992 10993 10995 10996 10998 11002 11002 11001 11002 11003 11005 11006 11007 11008 11009 11010 11010 11011 11012 11012 11012 11012 11012 11012 11012 11011 11011 11010 11009 11009 11008 11007 11007 11006 11005 11003 11003 11002 11002 11001 11001 11001 11000 10999 10999 10998 10997 10997 10996 10996 10995 10995 10995 10995 10995 10995 10995 10995 10995 10995 10995 10995 10995 10996
10928 10930 10932 10935 10938 10941 10944 10947 10950 10952 10955 10957 10959 10961 10963 10967 10970 10973 10975 10976 10977 10979 10981 10985 10988 10989 10991 10992 10994 10996 10998 10999 10999 11000 11002 11003 11004 11006 11007 11008 11008 11009 11009 11010 11010 11010 11011 11010 11010 11011 11010 11010 11009 11009 11008 11008 11007 11006 11005 11004 11004 11003 11002 11002 11002 11002 11001 11001 11001 11000 10999 10999 10998 10997 10997 10997 10996 10996 10996 10996 10996 10996 10996 10996 10996 10996 10996 10996
10920 10922 10924 10927 10929 10932 10936 10939 10942 10945 10947 10950 10953 10955 10958 10961 10964 10968 10970 10970 10971 10974 10977 10980 10982 10984 10986 10988 10990 10992 10994 10995 10996 10996 10998 11000 11002 11003 11003 11005 11006 11006 11007 11008 11008 11008 11009 11009 11009 11009 11009 11009 11009 11009 11008 11008 11007 11007 11006 11005 11004 11004 11003 11002 11002 11002 11002 11002 11002 11002 11001 11000 11000 10999 10998 10998 10998 10998 10997 10997 10997 10997 10997 10997 10996 10997 10996 10996
10910 10913 10916 10918 10921 10924 10927 10930 10934 10937 10939 10942 10946 10948 10952 10955 10958 10962 10964 10964 10967 10970 10973 10975 10975 10978 10982 10984 10986 10987 10989 10990 10991 10993 10994 10996 10998 10999 11000 11001 11002 11004 11005 11006 11006 11006 11007 11007 11007 11007 11008 11008 11008 11008 11008 11008 11007 11007 11006 11005 11005 11004 11004 11003 11003 11002 11002 11002 11002 11002 11002 11001 11001 11000 11000 10999 10998 10998 10998 10997 10997 10997 10997 10997 10997 10997 10997 10996
10900 10903 10907 10910 10912 10915 10918 10922 10925 10927 10930 10935 10939 10941 10945 10948 10951 10956 10959 10959 10962 10965 10968 10969 10969 10973 10977 10979 10981 10982 10983 10985 10986 10989 10990 10992 10995 10995 10996 10997 10999 11001 11002 11003 11003 11004 11004 11005 11005 11005 11006 11006 11007 11007 11007 11007 11007 11006 11006 11005 11005 11005 11004 11003 11003 11003 11002 11002 11001 11001 11001 11001 11001 11001 11001 11000 10999 10998 10998 10998 10997 10997 10997 10997 10997 10997 10997 10996
10890 10893 10896 10900 10903 10906 10909 10913 10916 10917 10922 10928 10931 10935 10938 10941 10945 10951 10954 10954 10956 10960 10962 10963 10964 10968 10971 10973 10975 10977 10979 10980 10982 10984 10985 10988 10990 10991 10992 10994 10995 10997 10999 11000 11000 11001 11002 11002 11003 11003 11003 11003 11004 11005 11005 11005 11005 11005 11005 11005 11005 11004 11004 11004 11003 11003 11002 11002 11001 11001 11001 11001 11001 11001 11001 11000 11000 10999 10999 10998 10998 10997 10997 10997 10997 10997 10997 10996
10879 10882 10886 10890 10893 10897 10900 10904 10906 10908 10914 10919 10923 10927 10931 10934 10938 10943 10947 10948 10950 10953 10955 10955 10958 10963 10965 10966 10970 10974 10974 10975 10976 10978 10981 10984 10986 10987 10989 10989 10991 10994 10995 10996 10997 10998 10999 11000 11000 11001 11001 11001 11001 11002 11003 11003 11003 11004 11004 11004 11004 11003 11003 11003 11003 11002 11002 11002 11001 11001 11001 11001 11000 11000 11000 11000 11000 11000 10999 10998 10998 10997 10997 10997 10997 10997 10996 10996
10869 10872 10875 10879 10883 10886 10890 10894 10896 10899 10906 10911 10915 10918 10922 10925 10929 10934 10939 10942 10943 10944 10948 10950 10954 10957 10958 10960 10966 10969 10968 10969 10971 10973 10976 10979 10981 10983 10984 10985 10988 10990 10991 10992 10994 10995 10996 10997 10997 10998 10999 10999 10999 11000 11000 11001 11001 11002 11002 11002 11003 11002 11002 11002 11002 11002 11002 11001 11001 11000 11000 11000 11000 11000 10999 10999 10999 10999 10999 10999 10998 10997 10996 10996 10996 10995 10995 10995
10858 10861 10864 10869 10872 10875 10880 10883 10885 10890 10897 10903 10905 10909 10913 10917 10922 10927 10932 10937 10937 10936 10943 10946 10947 10951 10951 10955 10961 10961 10961 10964 10966 10968 10970 10973 10976 10977 10979 10981 10983 10985 10986 10988 10990 10992 10993 10994 10994 10995 10996 10997 10997 10997 10998 10998 10999 11000 11000 11000 11001 11001 11001 11001 11001 11001 11001 11001 11000 10999 10999 10999 10999 10999 10999 10998 10998 10998 10998 10998 10998 10997 10996 10996 10995 10995 10995 10995
10847 10850 10853 10858 10862 10865 10868 10872 10875 10880 10889 10894 10895 10900 10906 10909 10915 10920 10925 10931 10930 10929 10937 10939 10940 10943 10943 10947 10954 10954 10956 10959 10961 10963 10965 10967 10970 10972 10975 10977 10978 10980 10982 10984 10987 10988 10989 10990 10991 10992 10993 10994 10994 10995 10995 10996 10997 10998 10997 10998 10998 10998 10999 10999 10999 10999 10999 10999 10999 10999 10998 10997 10997 10997 10998 10997 10997 10997 10997 10997 10998 10997 10996 10995 10995 10994 10994 10994
10835 10839 10842 10846 10852 10855 10855 10861 10866 10870 10879 10884 10884 10891 10898 10901 10907 10912 10916 10923 10923 10923 10930 10933 10933 10934 10934 10940 10948 10949 10950 10953 10956 10959 10959 10960 10965 10968 10970 10972 10973 10974 10977 10980 10982 10982 10984 10987 10988 10989 10991 10991 10991 10992 10992 10992 10994 10995 10995 10995 10996 10996 10996 10997 10998 10998 10998 10998 10998 10998 10997 10996 10996 10995 10996 10996 10995 10995 10995 10996 10996 10996 10996 10995 10994 10993 10992 10992
10822 10827 10831 10834 10841 10845 10843 10848 10857 10860 10867 10872 10874 10882 10889 10893 10899 10904 10910 10915 10915 10916 10920 10924 10925 10925 10928 10937 10943 10943 10943 10946 10950 10953 10952 10954 10959 10963 10965 10966 10967 10969 10973 10976 10977 10977 10980 10983 10983 10986 10988 10987 10987 10988 10989 10989 10990 10992 10992 10992 10993 10994 10994 10994 10995 10996 10997 10996 10996 10996 10996 10996 10995 10994 10994 10994 10993 10993 10993 10993 10994 10994 10994 10994 10994 10992 10991 10990
10809 10814 10820 10822 10828 10835 10832 10835 10846 10851 10854 10861 10865 10872 10880 10886 10891 10897 10904 10906 10905 10907 10912 10916 10917 10917 10923 10933 10937 10936 10936 10939 10942 10944 10946 10948 10953 10957 10958 10961 10963 10965 10969 10971 10971 10973 10976 10978 10979 10982 10983 10983 10983 10984 10986 10986 10987 10989 10990 10989 10990 10991 10991 10991 10992 10993 10994 10994 10994 10994 10995 10995 10995 10993 10992 10992 10991 10991 10991 10991 10992 10992 10992 10992 10992 10991 10989 10988
10796 10801 10809 10810 10815 10823 10820 10823 10835 10839 10842 10851 10857 10863 10872 10878 10883 10891 10896 10893 10893 10901 10905 10907 10909 10912 10919 10927 10930 10926 10926 10931 10934 10937 10941 10942 10947 10951 10953 10957 10960 10962 10965 10966 10967 10969 10970 10973 10975 10977 10977 10977 10979 10980 10981 10982 10984 10986 10986 10986 10987 10988 10988 10988 10989 10990 10990 10990 10991 10992 10992 10993 10993 10992 10992 10991 10990 10990 10990 10990 10990 10991 10991 10991 10991 10990 10988 10986
10784 10790 10796 10799 10802 10807 10807 10813 10824 10827 10831 10841 10847 10854 10862 10869 10877 10885 10883 10880 10887 10896 10897 10898 10902 10905 10910 10918 10921 10917 10918 10925 10928 10931 10936 10937 10940 10946 10949 10953 10955 10956 10960 10961 10961 10962 10963 10966 10969 10970 10972 10973 10974 10977 10977 10978 10981 10982 10982 10982 10984 10985 10986 10985 10985 10986 10987 10987 10987 10989 10990 10990 10991 10991 10990 10990 10989 10989 10988 10987 10987 10986 10987 10988 10988 10989 10987 10984
10774 10779 10784 10786 10788 10789 10794 10803 10811 10815 10821 10829 10836 10844 10853 10862 10872 10873 10869 10873 10881 10885 10886 10889 10893 10894 10900 10908 10910 10908 10911 10919 10921 10924 10929 10930 10933 10938 10942 10946 10948 10950 10954 10953 10953 10955 10956 10960 10964 10966 10968 10968 10969 10972 10972 10973 10976 10977 10978 10979 10980 10982 10983 10983 10982 10982 10983 10983 10983 10984 10986 10987 10987 10987 10988 10988 10987 10987 10986 10984 10983 10981 10981 10983 10984 10986 10986 10984
10764 10769 10771 10773 10774 10774 10781 10793 10799 10802 10810 10818 10826 10836 10846 10857 10862 10859 10859 10866 10870 10871 10874 10879 10882 10886 10892 10898 10900 10900 10905 10912 10913 10916 10922 10923 10926 10932 10937 10940 10943 10945 10946 10947 10948 10950 10952 10957 10960 10962 10963 10962 10963 10966 10967 10968 10971 10973 10974 10975 10976 10977 10978 10979 10979 10979 10980 10980 10979 10980 10982 10982 10983 10983 10984 10986 10985 10984 10984 10983 10982 10978 10976 10977 10979 10981 10982 10982
10755 10759 10758 10759 10761 10761 10768 10780 10786 10790 10799 10807 10816 10828 10841 10849 10848 10846 10851 10855 10856 10858 10862 10867 10873 10879 10882 10887 10892 10894 10898 10904 10905 10908 10916 10919 10920 10926 10931 10933 10936 10938 10938 10942 10944 10945 10948 10951 10955 10957 10956 10955 10958 10960 10962 10962 10965 10969 10970 10971 10971 10971 10973 10974 10976 10976 10976 10976 10976 10976 10977 10978 10979 10979 10980 10982 10982 10981 10981 10981 10981 10979 10976 10974 10974 10976 10977 10978
10745 10748 10746 10745 10747 10751 10757 10767 10774 10779 10787 10796 10807 10822 10834 10835 10832 10835 10840 10842 10843 10844 10850 10859 10865 10870 10873 10878 10883 10887 10891 10896 10896 10900 10909 10914 10913 10918 10923 10925 10928 10930 10932 10936 10938 10938 10942 10943 10948 10952 10948 10948 10953 10953 10954 10957 10960 10964 10966 10966 10965 10965 10968 10970 10971 10972 10972 10973 10973 10972 10972 10974 10976 10976 10975 10978 10979 10978 10978 10978 10979 10978 10976 10973 10971 10971 10972 10973
10734 10736 10734 10733 10736 10743 10749 10754 10761 10768 10775 10785 10800 10814 10821 10820 10821 10825 10828 10828 10831 10835 10844 10853 10855 10860 10867 10871 10874 10880 10884 10885 10887 10893 10902 10908 10908 10910 10917 10919 10920 10924 10927 10929 10929 10931 10934 10934 10941 10947 10940 10942 10948 10944 10945 10953 10956 10959 10962 10960 10959 10961 10963 10965 10965 10967 10968 10968 10968 10967 10968 10970 10971 10972 10971 10972 10974 10973 10973 10973 10974 10975 10975 10973 10971 10969 10968 10969
10723 10724 10723 10722 10727 10735 10737 10739 10747 10756 10762 10776 10792 10802 10807 10808 10809 10813 10814 10816 10822 10829 10836 10841 10845 10852 10860 10863 10866 10871 10876 10876 10879 10887 10895 10901 10903 10904 10910 10912 10914 10919 10920 10919 10920 10924 10927 10927 10934 10940 10934 10936 10942 10937 10939 10950 10952 10954 10956 10953 10954 10956 10958 10960 10960 10961 10962 10962 10963 10963 10963 10965 10966 10968 10968 10968 10969 10968 10966 10965 10966 10969 10971 10971 10970 10967 10966 10965
10712 10712 10712 10715 10719 10723 10723 10727 10736 10745 10753 10768 10782 10788 10791 10794 10795 10799 10801 10805 10813 10819 10826 10834 10839 10843 10850 10856 10858 10861 10868 10869 10870 10879 10888 10894 10898 10898 10901 10904 10908 10911 10910 10910 10913 10917 10921 10920 10924 10931 10929 10929 10936 10934 10936 10945 10948 10948 10949 10948 10949 10951 10952 10953 10955 10955 10956 10957 10958 10957 10957 10960 10962 10964 10965 10965 10965 10964 10961 10959 10959 10960 10962 10965 10966 10964 10962 10962
10701 10700 10702 10708 10709 10709 10711 10717 10726 10735 10744 10757 10767 10771 10775 10780 10783 10787 10789 10795 10805 10813 10820 10827 10829 10833 10843 10852 10852 10853 10859 10860 10859 10870 10881 10886 10889 10891 10892 10896 10900 10902 10900 10902 10905 10909 10915 10914 10912 10920 10924 10924 10932 10934 10933 10937 10941 10941 10942 10943 10944 10945 10945 10946 10948 10950 10951 10951 10952 10951 10951 10955 10958 10959 10960 10960 10960 10959 10957 10956 10957 10955 10954 10957 10960 10958 10957 10957
10690 10689 10694 10700 10698 10696 10702 10709 10716 10724 10733 10744 10752 10756 10761 10767 10770 10774 10780 10788 10797 10803 10808 10814 10819 10827 10835 10841 10843 10843 10847 10851 10852 10861 10872 10878 10881 10884 10885 10887 10891 10892 10890 10893 10897 10902 10909 10907 10901 10907 10917 10924 10929 10930 10926 10927 10933 10935 10934 10937 10939 10939 10938 10939 10941 10945 10945 10944 10945 10944 10945 10950 10954 10954 10955 10954 10954 10953 10952 10953 10955 10954 10951 10951 10954 10955 10953 10952
10680 10679 10685 10691 10686 10685 10692 10699 10704 10712 10721 10731 10738 10741 10746 10753 10758 10764 10771 10778 10786 10792 10798 10805 10812 10818 10821 10826 10834 10836 10838 10843 10847 10853 10863 10870 10874 10877 10877 10877 10881 10883 10883 10885 10891 10896 10899 10899 10893 10894 10909 10923 10924 10922 10920 10918 10923 10928 10929 10931 10933 10933 10934 10934 10936 10940 10939 10938 10938 10936 10938 10945 10948 10949 10949 10948 10946 10946 10948 10949 10949 10950 10950 10948 10947 10949 10950 10948
10669 10670 10676 10681 10676 10675 10684 10690 10692 10700 10709 10715 10720 10725 10733 10741 10748 10753 10760 10768 10777 10785 10791 10799 10804 10807 10812 10819 10827 10831 10832 10836 10841 10846 10853 10860 10865 10868 10867 10869 10871 10873 10876 10878 10883 10888 10889 10890 10888 10887 10898 10914 10915 10914 10917 10914 10914 10922 10925 10926 10926 10926 10929 10929 10929 10932 10933 10933 10933 10930 10932 10939 10941 10943 10943 10940 10938 10940 10942 10943 10943 10944 10947 10945 10942 10942 10944 10945
10659 10660 10666 10670 10668 10668 10676 10681 10683 10690 10696 10700 10706 10713 10720 10730 10736 10742 10751 10760 10768 10776 10782 10788 10792 10796 10803 10810 10815 10821 10824 10825 10831 10837 10841 10848 10857 10859 10858 10860 10863 10865 10870 10872 10875 10882 10883 10881 10882 10881 10885 10901 10908 10909 10914 10915 10912 10915 10918 10920 10920 10920 10922 10923 10920 10922 10925 10928 10928 10925 10926 10932 10934 10936 10937 10933 10930 10932 10935 10938 10939 10940 10942 10941 10939 10938 10939 10940
10649 10650 10656 10662 10662 10663 10668 10670 10673 10679 10685 10689 10695 10701 10709 10719 10726 10733 10742 10751 10758 10765 10771 10776 10780 10785 10793 10800 10806 10812 10816 10817 10822 10827 10831 10837 10846 10850 10848 10851 10856 10859 10862 10866 10869 10875 10875 10872 10874 10875 10876 10890 10903 10905 10907 10911 10912 10912 10910 10910 10912 10913 10915 10915 10912 10913 10918 10922 10921 10919 10921 10926 10928 10928 10928 10926 10924 10923 10927 10934 10936 10935 10936 10934 10933 10935 10936 10935
10639 10640 10647 10654 10656 10655 10656 10658 10662 10668 10674 10679 10686 10693 10701 10711 10717 10722 10731 10740 10747 10753 10759 10765 10772 10779 10787 10794 10798 10802 10807 10809 10810 10815 10822 10827 10832 10838 10839 10841 10848 10853 10855 10860 10863 10864 10865 10864 10867 10869 10870 10881 10895 10898 10898 10901 10906 10909 10907 10902 10902 10906 10909 10907 10905 10907 10911 10913 10914 10913 10914 10919 10922 10921 10919 10919 10918 10916 10918 10925 10930 10931 10931 10929 10925 10928 10931 10931
10629 10632 10639 10645 10645 10643 10643 10646 10650 10655 10661 10667 10675 10683 10693 10702 10708 10713 10721 10730 10735 10741 10750 10758 10765 10772 10779 10785 10790 10794 10798 10799 10799 10803 10812 10818 10819 10826 10833 10836 10842 10847 10849 10854 10856 10854 10854 10856 10859 10863 10866 10874 10884 10888 10890 10894 10897 10902 10904 10900 10897 10898 10901 10901 10901 10902 10902 10904 10907 10906 10905 10910 10915 10914 10913 10912 10911 10912 10914 10917 10921 10923 10924 10924 10922 10921 10923 10925
10619 10622 10629 10634 10634 10633 10635 10637 10640 10645 10651 10659 10667 10674 10682 10690 10697 10702 10710 10717 10723 10734 10744 10749 10756 10763 10770 10775 10780 10784 10785 10787 10788 10792 10801 10811 10814 10821 10833 10837 10838 10843 10847 10848 10847 10842 10842 10848 10853 10858 10861 10867 10873 10877 10881 10887 10890 10892 10895 10895 10893 10893 10894 10896 10896 10896 10895 10896 10898 10896 10896 10901 10907 10907 10905 10905 10905 10907 10911 10914 10917 10917 10913 10914 10918 10918 10917 10918
10607 10611 10619 10623 10624 10624 10625 10627 10631 10636 10641 10648 10657 10664 10673 10681 10686 10691 10698 10704 10714 10726 10732 10736 10745 10753 10757 10761 10764 10768 10770 10772 10775 10780 10791 10804 10811 10818 10827 10828 10831 10840 10842 10837 10833 10832 10833 10840 10847 10851 10854 10858 10864 10869 10874 10879 10881 10883 10887 10888 10888 10888 10889 10889 10889 10888 10888 10889 10889 10888 10888 10893 10898 10898 10897 10897 10899 10902 10905 10909 10913 10913 10907 10904 10907 10911 10912 10913
10595 10601 10608 10613 10613 10613 10616 10618 10622 10627 10631 10637 10644 10651 10660 10669 10674 10680 10687 10694 10704 10713 10719 10727 10738 10742 10743 10746 10750 10753 10756 10758 10763 10771 10784 10797 10805 10812 10815 10813 10821 10834 10832 10822 10821 10825 10828 10834 10840 10845 10847 10851 10856 10861 10866 10870 10872 10875 10879 10880 10879 10881 10882 10883 10884 10881 10878 10879 10879 10879 10881 10886 10889 10891 10890 10890 10894 10898 10901 10903 10905 10906 10901 10897 10898 10902 10905 10906
10584 10589 10597 10602 10602 10602 10606 10608 10610 10617 10622 10626 10631 10636 10643 10652 10659 10667 10676 10683 10692 10700 10706 10714 10722 10725 10727 10732 10738 10742 10744 10749 10758 10770 10783 10794 10800 10805 10805 10804 10814 10826 10822 10811 10811 10818 10824 10829 10833 10837 10839 10843 10850 10854 10857 10860 10863 10866 10868 10870 10871 10872 10873 10874 10876 10873 10870 10870 10869 10868 10873 10880 10882 10882 10883 10884 10890 10896 10898 10898 10898 10895 10892 10891 10893 10896 10898 10897
10572 10578 10584 10591 10591 10591 10595 10597 10600 10607 10611 10615 10621 10626 10632 10640 10647 10654 10663 10673 10682 10689 10697 10703 10709 10713 10717 10721 10727 10733 10739 10751 10762 10772 10783 10790 10791 10794 10797 10798 10805 10813 10812 10806 10805 10812 10821 10825 10826 10829 10833 10838 10844 10846 10846 10847 10850 10854 10859 10863 10862 10861 10861 10864 10867 10866 10863 10861 10860 10860 10865 10872 10874 10874 10875 10880 10886 10890 10891 10892 10891 10885 10883 10885 10888 10888 10890 10891